Weather History for Franklin, NC

Change the Weather History Date:

Monday, April 28, 2014

  Actual Average (KTOC) Record (KTOC)
Temperature  
Mean Temperature 66 °F -  
Max Temperature 78 °F 77 °F 82 °F (2014)
Min Temperature 55 °F 50 °F 61 °F (2014)
Cooling Degree Days 2    
Growing Degree Days 16 (Base 50)    
Moisture  
Dew Point 57 °F    
Average Humidity 75    
Maximum Humidity 100    
Minimum Humidity 38    
Precipitation  
Precipitation 0.72 in - - ()
Sea Level Pressure  
Sea Level Pressure 29.94 in    
Wind  
Wind Speed 3 mph (SSE)    
Max Wind Speed 12 mph    
Max Gust Speed 21 mph    
Visibility 7 miles    
Events Fog , Rain    
Averages and records for this station are not official NWS values.
T = Trace of Precipitation, MM = Missing Value Source: NWS Daily Summary

Daily Weather History Graph

Daily Weather History Graph

Search for Another Location

Airport:

Trip Planner

Search our weather history database for the weather conditions in past years. The results will help you decide how hot, cold, wet, or windy it might be!

Date:

Astronomy

Apr. 28, 2014 Rise Set
Actual Time 6:45 AM EDT 8:17 PM EDT
Civil Twilight 6:18 AM EDT 8:44 PM EDT
Nautical Twilight 5:46 AM EDT 9:16 PM EDT
Astronomical Twilight 5:12 AM EDT 9:50 PM EDT
Moon 6:20 AM EDT (4/28) 7:55 PM EDT (4/28)
Length of Visible Light 14h 25m
Length of Day
13h 31m
Waning Crescent, 0% of the Moon is Illuminated
Apr 28
Waning Crescent
Apr 29
New
May 6
First Quarter
May 14
Full
May 21
Last Quarter

Hourly Weather History & Observations

Time (EDT) Temp. Dew Point Humidity Pressure Visibility Wind Dir Wind Speed Gust Speed Precip Events Conditions
12:15 AM 61.3 °F 61.3 °F 100% 30.06 in 5.0 mi Calm Calm - 0.01 in Rain Light Rain
12:35 AM 61.0 °F 61.0 °F 100% 30.03 in 5.0 mi Calm Calm - 0.03 in Rain Rain
12:55 AM 61.0 °F 61.0 °F 100% 30.02 in 7.0 mi Calm Calm - 0.03 in   Overcast
1:15 AM 60.3 °F 60.3 °F 100% 30.02 in 5.0 mi WSW 3.5 mph - N/A   Mostly Cloudy
1:35 AM 60.4 °F 60.4 °F 100% 30.03 in 5.0 mi West 4.6 mph - N/A   Mostly Cloudy
1:55 AM 60.3 °F 60.3 °F 100% 30.02 in 5.0 mi Calm Calm - N/A   Overcast
2:15 AM 59.5 °F 59.5 °F 100% 30.01 in 4.0 mi Calm Calm - N/A   Mostly Cloudy
2:35 AM 59.0 °F 59.0 °F 100% 29.99 in 3.0 mi Calm Calm - N/A   Scattered Clouds
2:55 AM 58.1 °F 58.1 °F 100% 29.98 in 0.8 mi Calm Calm - N/A   Scattered Clouds
3:15 AM 57.0 °F 57.0 °F 100% 29.97 in 0.2 mi Calm Calm - N/A Fog Fog
3:35 AM 57.4 °F 57.4 °F 100% 29.97 in 0.2 mi Calm Calm - N/A Fog Fog
3:55 AM 57.2 °F 57.2 °F 100% 29.98 in 0.5 mi Calm Calm - N/A Fog Fog
4:15 AM 57.2 °F 57.2 °F 100% 29.97 in 0.2 mi Calm Calm - N/A Fog Fog
4:35 AM 57.6 °F 57.6 °F 100% 29.96 in 0.2 mi Calm Calm - N/A Fog Fog
4:55 AM 57.2 °F 56.8 °F 99% 29.96 in 0.8 mi Calm Calm - N/A   Overcast
5:15 AM 57.2 °F 57.0 °F 99% 29.96 in 0.2 mi Calm Calm - N/A Fog Fog
5:35 AM 56.7 °F 56.5 °F 99% 29.96 in 0.2 mi Calm Calm - N/A Fog Fog
5:55 AM 56.7 °F 56.3 °F 99% 29.96 in 0.2 mi Calm Calm - N/A Fog Fog
6:15 AM 56.3 °F 55.9 °F 99% 29.97 in 0.8 mi West 3.5 mph - N/A   Overcast
6:35 AM 55.9 °F 55.6 °F 99% 29.97 in 1.5 mi Calm Calm - N/A   Overcast
6:55 AM 55.6 °F 55.4 °F 99% 29.96 in 1.0 mi Calm Calm - N/A   Overcast
7:15 AM 55.8 °F 55.4 °F 99% 29.96 in 0.2 mi Calm Calm - N/A Fog Fog
7:35 AM 55.8 °F 55.4 °F 99% 29.96 in 0.2 mi Calm Calm - N/A Fog Fog
7:55 AM 56.1 °F 55.6 °F 98% 29.96 in 0.2 mi NNE 3.5 mph - N/A Fog Fog
8:15 AM 56.7 °F 56.3 °F 99% 29.96 in 3.0 mi Calm Calm - N/A   Mostly Cloudy
8:35 AM 57.7 °F 57.2 °F 98% 29.97 in 3.0 mi Calm Calm - N/A   Mostly Cloudy
8:55 AM 60.1 °F 59.4 °F 97% 29.96 in 10.0 mi East 4.6 mph - N/A   Mostly Cloudy
9:15 AM 61.7 °F 61.0 °F 97% 29.96 in 10.0 mi ENE 4.6 mph - N/A   Scattered Clouds
9:55 AM 66.4 °F 57.4 °F 73% 29.96 in 10.0 mi SE 5.8 mph - N/A   Scattered Clouds
10:15 AM 67.6 °F 56.3 °F 67% 29.96 in 10.0 mi ESE 5.8 mph - N/A   Scattered Clouds
10:35 AM 70.0 °F 55.9 °F 61% 29.94 in 10.0 mi SE 3.5 mph - N/A   Clear
10:55 AM 70.7 °F 55.2 °F 58% 29.96 in 10.0 mi SE 8.1 mph 16.1 mph N/A   Scattered Clouds
11:15 AM 72.0 °F 55.8 °F 57% 29.95 in 10.0 mi SE 8.1 mph 18.4 mph N/A   Scattered Clouds
11:35 AM 72.7 °F 54.1 °F 52% 29.96 in 10.0 mi SSE 6.9 mph - N/A   Clear
12:15 PM 73.4 °F 54.1 °F 51% 29.96 in 10.0 mi East 6.9 mph - N/A   Clear
12:35 PM 74.7 °F 49.8 °F 42% 29.96 in 10.0 mi SSE 6.9 mph - N/A   Scattered Clouds
12:55 PM 75.4 °F 53.2 °F 46% 29.93 in 10.0 mi ESE 10.4 mph 17.3 mph N/A   Clear
1:15 PM 73.9 °F 52.3 °F 47% 29.92 in 10.0 mi SE 4.6 mph 20.7 mph N/A   Scattered Clouds
1:35 PM 75.7 °F 52.7 °F 45% 29.92 in 10.0 mi SSE 8.1 mph - N/A   Scattered Clouds
1:55 PM 75.6 °F 52.5 °F 45% 29.94 in 10.0 mi SSE 11.5 mph 19.6 mph N/A   Scattered Clouds
2:15 PM 75.0 °F 52.7 °F 46% 29.93 in 10.0 mi SE 10.4 mph 18.4 mph N/A   Scattered Clouds
2:35 PM 74.7 °F 52.5 °F 46% 29.93 in 10.0 mi SSE 9.2 mph - N/A   Scattered Clouds
2:55 PM 75.6 °F 53.8 °F 47% 29.92 in 10.0 mi SSE 9.2 mph - N/A   Scattered Clouds
3:15 PM 77.5 °F 54.0 °F 44% 29.93 in 10.0 mi South 6.9 mph 17.3 mph N/A   Clear
3:35 PM 78.6 °F 51.1 °F 38% 29.91 in 10.0 mi South 8.1 mph - N/A   Scattered Clouds
3:55 PM 78.1 °F 50.7 °F 38% 29.90 in 10.0 mi SW 3.5 mph 18.4 mph N/A   Clear
4:35 PM 76.1 °F 54.0 °F 46% 29.89 in 10.0 mi SSE 6.9 mph - N/A   Scattered Clouds
4:55 PM 75.2 °F 54.7 °F 49% 29.89 in 10.0 mi South 5.8 mph - N/A   Scattered Clouds
5:15 PM 74.5 °F 55.0 °F 51% 29.87 in 10.0 mi South 4.6 mph - N/A   Clear
5:35 PM 75.6 °F 56.1 °F 51% 29.86 in 10.0 mi South 3.5 mph - N/A   Clear
5:55 PM 75.9 °F 55.4 °F 49% 29.86 in 10.0 mi SE 8.1 mph - N/A   Clear
6:15 PM 75.0 °F 55.0 °F 50% 29.86 in 10.0 mi SSE 8.1 mph - N/A   Clear
6:35 PM 74.5 °F 54.5 °F 50% 29.87 in 10.0 mi South 4.6 mph - N/A   Clear
6:55 PM 73.9 °F 54.7 °F 51% 29.88 in 10.0 mi SSE 6.9 mph - N/A   Scattered Clouds
7:15 PM 73.2 °F 55.0 °F 53% 29.87 in 10.0 mi SSE 6.9 mph - N/A   Mostly Cloudy
7:35 PM 72.7 °F 55.2 °F 54% 29.88 in 10.0 mi South 6.9 mph - N/A   Mostly Cloudy
7:55 PM 72.3 °F 55.6 °F 56% 29.88 in 10.0 mi SE 3.5 mph - N/A   Mostly Cloudy
8:15 PM 71.4 °F 56.3 °F 59% 29.87 in 10.0 mi SSE 3.5 mph - N/A   Scattered Clouds
8:35 PM 70.3 °F 56.7 °F 62% 29.88 in 10.0 mi South 4.6 mph - N/A   Scattered Clouds
8:55 PM 70.7 °F 57.2 °F 62% 29.88 in 10.0 mi SSE 3.5 mph - N/A   Scattered Clouds
9:15 PM 69.8 °F 57.6 °F 65% 29.89 in 10.0 mi Calm Calm - N/A   Scattered Clouds
9:35 PM 69.8 °F 58.1 °F 66% 29.90 in 10.0 mi Calm Calm - N/A   Clear
9:55 PM 69.8 °F 58.5 °F 67% 29.91 in 10.0 mi SSE 3.5 mph - N/A   Scattered Clouds
10:15 PM 69.4 °F 59.0 °F 69% 29.90 in 10.0 mi SE 3.5 mph - N/A   Scattered Clouds
10:55 PM 64.8 °F 62.8 °F 93% 29.90 in 2.5 mi SE 5.8 mph - 0.22 in Rain Heavy Rain
11:15 PM 63.5 °F 62.6 °F 97% 29.90 in 4.0 mi Calm Calm - 0.06 in Rain Heavy Rain
11:35 PM 62.2 °F 62.2 °F 100% 29.88 in 1.2 mi East 6.9 mph - 0.44 in Rain Heavy Rain
11:55 PM 61.9 °F 61.9 °F 100% 29.86 in 7.0 mi East 5.8 mph - 0.47 in Rain Rain